1998-067WV

Last updated on Wed Sep 11 2024 00:02:05 GMT+0000 (Coordinated Universal Time)

1 60955U 98067WV 24254.54924674 .00266709 00000+0 37537-2 0 9999 2 60955 51.6363 252.2211 0011450 351.2468 8.8321 15.55132687 1899
UTC large
Height (km)
Speed (km/s)
/
Latitude / Longitude
Inclination (degrees)
Orbital Period (minutes)
Azimuth
Elevation
Range (km)
Doppler Factor

Next 0 passes for location: London (51.5072 / 0.1276)

Sorry there are no passes over London.